{"data":{"norad_id":65459,"intl_designator":"2025-195B","name":"STARLINK-34867","alt_names":[],"object_type":"PAYLOAD","status":"ACTIVE","operator":null,"country":"US","launch_date":"2025-09-03","launch_site_code":"AFETR","launch_vehicle":null,"mission":null,"orbit_class":"UNKNOWN","rcs_meters":null,"size_class":null,"mass_kg":null,"dimensions":null,"purposes":["comms"],"wikipedia_slug":null,"has_3d_model":false,"image_url":null,"decayed_at":null,"tle_current":{"epoch":"2026-09-20T21:30:50.541984Z","epoch_age_seconds":80620,"freshness":"FRESH","line1":"1 65459U 25195B   26263.89641831  .00021333  00000+0  64062-3 0  9992","line2":"2 65459  53.1535  67.7157 0001930  85.7778 274.3445 15.34404058 59930","mean_motion":15.34404058,"eccentricity":0.000193,"inclination_deg":53.1535,"raan_deg":67.7157,"arg_perigee_deg":85.7778,"mean_anomaly_deg":274.3445,"bstar":0.00064062,"rev_number":5993,"period_min":93.847509884518,"perigee_km":461.37089916396,"apogee_km":464.01145884105,"semimajor_km":6840.8281790025,"source":"CELESTRAK","updated_at":"2026-09-21T09:00:35.613797Z"}}}